| time (UTC) | temp F | wind direction | speed MPH | gust MPH | rain 1hr in | rain 24hr in | rain mn in | humidity % | barometer mb |
| 20260506182004 | 60 | 199 | 2.0 | 2.0 | 0.02 | 0.16 | 0.16 | 95 | 971.1 |
| 20260506181504 | 60 | 228 | 3.0 | 5.0 | 0.02 | 0.16 | 0.16 | 95 | 971.1 |
| 20260506181004 | 59 | 134 | 3.0 | 3.0 | 0.03 | 0.16 | 0.16 | 95 | 971.1 |
| 20260506180504 | 59 | 196 | 2.0 | 2.0 | 0.02 | 0.15 | 0.15 | 95 | 971.1 |
| 20260506175504 | 59 | 190 | 2.0 | 6.0 | 0.01 | 0.14 | 0.14 | 95 | 971.2 |
| 20260506175004 | 59 | 158 | 2.0 | 3.0 | 0.01 | 0.14 | 0.14 | 95 | 971.2 |
| 20260506174504 | 59 | 185 | 1.0 | 3.0 | 0.02 | 0.14 | 0.14 | 95 | 971.2 |
| 20260506174004 | 59 | 199 | 3.0 | 5.0 | 0.02 | 0.14 | 0.14 | 95 | 971.2 |
| 20260506173504 | 59 | 175 | 0.0 | 2.0 | 0.02 | 0.14 | 0.14 | 95 | 971.2 |
| 20260506173004 | 59 | 235 | 3.0 | 5.0 | 0.03 | 0.14 | 0.14 | 95 | 971.2 |
| 20260506172004 | 59 | 223 | 2.0 | 6.0 | 0.04 | 0.14 | 0.14 | 95 | 971.2 |
| 20260506171504 | 59 | 169 | 3.0 | 5.0 | 0.04 | 0.14 | 0.14 | 95 | 971.2 |
| 20260506171004 | 59 | 180 | 4.0 | 6.0 | 0.03 | 0.13 | 0.13 | 95 | 971.2 |
| 20260506165504 | 59 | 225 | 1.0 | 3.0 | 0.05 | 0.13 | 0.13 | 95 | 971.3 |
| 20260506165005 | 59 | 188 | 1.0 | 3.0 | 0.05 | 0.13 | 0.13 | 95 | 971.3 |
| 20260506164504 | 59 | 195 | 2.0 | 6.0 | 0.05 | 0.12 | 0.12 | 95 | 971.4 |
| 20260506164004 | 59 | 212 | 3.0 | 6.0 | 0.06 | 0.12 | 0.12 | 95 | 971.4 |
| 20260506163004 | 59 | 192 | 2.0 | 3.0 | 0.06 | 0.11 | 0.11 | 95 | 971.2 |
| 20260506162004 | 60 | 228 | 1.0 | 3.0 | 0.06 | 0.10 | 0.10 | 94 | 971.3 |
| 20260506161004 | 60 | 207 | 3.0 | 3.0 | 0.06 | 0.10 | 0.10 | 94 | 971.4 |
| 20260506160504 | 60 | 205 | 3.0 | 6.0 | 0.06 | 0.10 | 0.10 | 94 | 971.4 |
| 20260506160004 | 60 | 132 | 3.0 | 5.0 | 0.05 | 0.09 | 0.09 | 94 | 971.8 |
| 20260506155504 | 60 | 157 | 2.0 | 5.0 | 0.04 | 0.08 | 0.08 | 94 | 971.8 |
| 20260506154504 | 60 | 183 | 2.0 | 3.0 | 0.04 | 0.07 | 0.07 | 94 | 972.3 |
| 20260506154004 | 60 | 204 | 2.0 | 3.0 | 0.03 | 0.06 | 0.06 | 93 | 972.3 |
| 20260506153504 | 60 | 222 | 2.0 | 5.0 | 0.03 | 0.05 | 0.05 | 93 | 971.9 |
| 20260506153004 | 61 | 237 | 3.0 | 6.0 | 0.03 | 0.05 | 0.05 | 93 | 971.9 |
| 20260506152504 | 61 | 166 | 1.0 | 2.0 | 0.03 | 0.05 | 0.05 | 93 | 971.7 |
| 20260506151504 | 61 | 219 | 3.0 | 5.0 | 0.03 | 0.04 | 0.04 | 93 | 971.7 |
| 20260506150504 | 61 | 143 | 2.0 | 5.0 | 0.04 | 0.04 | 0.04 | 93 | 971.9 |
| 20260506145504 | 60 | 207 | 2.0 | 3.0 | 0.04 | 0.04 | 0.04 | 93 | 971.9 |
| 20260506145004 | 60 | 163 | 3.0 | 3.0 | 0.03 | 0.03 | 0.03 | 93 | 972.0 |
| 20260506144504 | 60 | 158 | 2.0 | 3.0 | 0.03 | 0.03 | 0.03 | 92 | 972.2 |
| 20260506144004 | 60 | 138 | 2.0 | 2.0 | 0.03 | 0.03 | 0.03 | 92 | 972.2 |
| 20260506143504 | 60 | 211 | 2.0 | 3.0 | 0.02 | 0.02 | 0.02 | 92 | 972.4 |
| 20260506143004 | 60 | 158 | 0.0 | 1.0 | 0.02 | 0.02 | 0.02 | 92 | 972.4 |
| 20260506142504 | 60 | 157 | 2.0 | 2.0 | 0.02 | 0.02 | 0.02 | 92 | 972.5 |
| 20260506142005 | 60 | 168 | 2.0 | 2.0 | 0.01 | 0.01 | 0.01 | 91 | 972.5 |
| 20260506141504 | 60 | 158 | 2.0 | 3.0 | 0.01 | 0.01 | 0.01 | 91 | 972.5 |
| 20260506140504 | 61 | 169 | 2.0 | 2.0 | 0.00 | 0.00 | 0.00 | 90 | 972.5 |
| 20260506135504 | 61 | 161 | 2.0 | 2.0 | 0.00 | 0.00 | 0.00 | 89 | 972.4 |
| 20260506135003 | 61 | 206 | 0.0 | 2.0 | 0.00 | 0.00 | 0.00 | 89 | 972.5 |
| 20260506134504 | 61 | 180 | 2.0 | 3.0 | 0.00 | 0.00 | 0.00 | 89 | 972.5 |
| 20260506134004 | 61 | 228 | 2.0 | 3.0 | 0.00 | 0.00 | 0.00 | 88 | 972.5 |
| 20260506133504 | 62 | 202 | 2.0 | 6.0 | 0.00 | 0.00 | 0.00 | 87 | 972.6 |
| 20260506133004 | 62 | 203 | 2.0 | 5.0 | 0.00 | 0.00 | 0.00 | 87 | 972.6 |
| 20260506132504 | 62 | 187 | 2.0 | 3.0 | 0.00 | 0.00 | 0.00 | 87 | 972.6 |
| 20260506132005 | 63 | 175 | 3.0 | 6.0 | 0.00 | 0.00 | 0.00 | 85 | 972.6 |
| 20260506131504 | 63 | 243 | 3.0 | 6.0 | 0.00 | 0.00 | 0.00 | 84 | 972.6 |
| 20260506131004 | 64 | 148 | 2.0 | 6.0 | 0.00 | 0.00 | 0.00 | 84 | 972.3 |
| 20260506130504 | 64 | 226 | 3.0 | 6.0 | 0.00 | 0.00 | 0.00 | 84 | 972.3 |
| 20260506130005 | 63 | 222 | 4.0 | 5.0 | 0.00 | 0.00 | 0.00 | 84 | 972.1 |
| 20260506125504 | 63 | 139 | 2.0 | 6.0 | 0.00 | 0.00 | 0.00 | 84 | 972.1 |
| 20260506125004 | 63 | 189 | 2.0 | 3.0 | 0.00 | 0.00 | 0.00 | 85 | 972.1 |
| 20260506124504 | 63 | 191 | 3.0 | 5.0 | 0.00 | 0.00 | 0.00 | 85 | 972.2 |
| 20260506123004 | 64 | 189 | 3.0 | 5.0 | 0.00 | 0.00 | 0.00 | 84 | 972.1 |
| 20260506122504 | 64 | 166 | 2.0 | 5.0 | 0.00 | 0.00 | 0.00 | 83 | 972.3 |
| 20260506122004 | 64 | 207 | 3.0 | 5.0 | 0.00 | 0.00 | 0.00 | 83 | 972.3 |
| 20260506121504 | 64 | 205 | 3.0 | 6.0 | 0.00 | 0.00 | 0.00 | 83 | 972.3 |
| 20260506115504 | 63 | 180 | 2.0 | 3.0 | 0.00 | 0.00 | 0.00 | 83 | 972.3 |
| 20260506115004 | 63 | 233 | 3.0 | 5.0 | 0.00 | 0.00 | 0.00 | 83 | 972.3 |
| 20260506114504 | 63 | 189 | 2.0 | 6.0 | 0.00 | 0.00 | 0.00 | 83 | 972.3 |
| 20260506114004 | 63 | 184 | 2.0 | 6.0 | 0.00 | 0.00 | 0.00 | 83 | 972.3 |
| 20260506113504 | 63 | 209 | 3.0 | 6.0 | 0.00 | 0.00 | 0.00 | 83 | 972.3 |
| 20260506113004 | 63 | 225 | 2.0 | 6.0 | 0.00 | 0.00 | 0.00 | 83 | 972.3 |
| 20260506112504 | 63 | 190 | 2.0 | 3.0 | 0.00 | 0.00 | 0.00 | 82 | 972.4 |
| 20260506112004 | 63 | 124 | 3.0 | 3.0 | 0.00 | 0.00 | 0.00 | 82 | 972.4 |
| 20260506111004 | 63 | 202 | 3.0 | 3.0 | 0.00 | 0.00 | 0.00 | 82 | 972.2 |
| 20260506110504 | 63 | 202 | 2.0 | 5.0 | 0.00 | 0.00 | 0.00 | 82 | 972.2 |
| 20260506110004 | 63 | 181 | 2.0 | 3.0 | 0.00 | 0.00 | 0.00 | 82 | 971.9 |
| 20260506105504 | 63 | 184 | 1.0 | 3.0 | 0.00 | 0.00 | 0.00 | 82 | 971.9 |
| 20260506105004 | 62 | 194 | 1.0 | 3.0 | 0.00 | 0.00 | 0.00 | 82 | 971.9 |
| 20260506104004 | 62 | 154 | 2.0 | 5.0 | 0.00 | 0.00 | 0.00 | 82 | 971.9 |
| 20260506103504 | 62 | 167 | 2.0 | 5.0 | 0.00 | 0.00 | 0.00 | 82 | 972.0 |
| 20260506103004 | 62 | 164 | 1.0 | 3.0 | 0.00 | 0.00 | 0.00 | 82 | 972.0 |
| 20260506102504 | 62 | 170 | 1.0 | 2.0 | 0.00 | 0.00 | 0.00 | 82 | 972.0 |
| 20260506101504 | 62 | 180 | 0.0 | 2.0 | 0.00 | 0.00 | 0.00 | 81 | 972.0 |
| 20260506101004 | 62 | 130 | 1.0 | 3.0 | 0.00 | 0.00 | 0.00 | 81 | 972.1 |
| 20260506100504 | 62 | 191 | 2.0 | 3.0 | 0.00 | 0.00 | 0.00 | 81 | 972.1 |
| 20260506100004 | 62 | 160 | 2.0 | 5.0 | 0.00 | 0.00 | 0.00 | 80 | 972.0 |
| 20260506095004 | 62 | 195 | 1.0 | 2.0 | 0.00 | 0.00 | 0.00 | 80 | 972.0 |
| 20260506094503 | 62 | 201 | 2.0 | 2.0 | 0.00 | 0.00 | 0.00 | 80 | 972.0 |
| 20260506093504 | 62 | 153 | 1.0 | 2.0 | 0.00 | 0.00 | 0.00 | 79 | 971.9 |
| 20260506093004 | 62 | 193 | 2.0 | 3.0 | 0.00 | 0.00 | 0.00 | 79 | 971.9 |
| 20260506092504 | 62 | 149 | 2.0 | 2.0 | 0.00 | 0.00 | 0.00 | 79 | 971.9 |
| 20260506092004 | 62 | 176 | 1.0 | 3.0 | 0.00 | 0.00 | 0.00 | 79 | 971.9 |
| 20260506091504 | 62 | 188 | 2.0 | 5.0 | 0.00 | 0.00 | 0.00 | 79 | 971.9 |
| 20260506091004 | 62 | 210 | 2.0 | 5.0 | 0.00 | 0.00 | 0.00 | 79 | 972.1 |
| 20260506090504 | 62 | 209 | 1.0 | 3.0 | 0.00 | 0.00 | 0.00 | 79 | 972.1 |
| 20260506090004 | 62 | 174 | 2.0 | 2.0 | 0.00 | 0.00 | 0.00 | 79 | 972.2 |
| 20260506085504 | 62 | 158 | 2.0 | 2.0 | 0.00 | 0.00 | 0.00 | 79 | 972.2 |
| 20260506085004 | 62 | 101 | 1.0 | 2.0 | 0.00 | 0.00 | 0.00 | 78 | 972.2 |
| 20260506084504 | 62 | 126 | 1.0 | 3.0 | 0.00 | 0.00 | 0.00 | 78 | 972.2 |
| 20260506083504 | 62 | 180 | 0.0 | 0.0 | 0.00 | 0.00 | 0.00 | 78 | 972.3 |
| 20260506083004 | 62 | 180 | 0.0 | 1.0 | 0.00 | 0.00 | 0.00 | 78 | 972.3 |
| 20260506082504 | 62 | 158 | 1.0 | 1.0 | 0.00 | 0.00 | 0.00 | 78 | 972.2 |
| 20260506082004 | 62 | 115 | 2.0 | 2.0 | 0.00 | 0.00 | 0.00 | 77 | 972.2 |
| 20260506081504 | 62 | 140 | 0.0 | 0.0 | 0.00 | 0.00 | 0.00 | 76 | 972.2 |
| 20260506081004 | 62 | 158 | 0.0 | 0.0 | 0.00 | 0.00 | 0.00 | 76 | 972.3 |
| 20260506080504 | 62 | 180 | 0.0 | 1.0 | 0.00 | 0.00 | 0.00 | 76 | 972.3 |
| 20260506073504 | 63 | 157 | 0.0 | 1.0 | 0.00 | 0.00 | 0.00 | 73 | 972.4 |
| 20260506073004 | 63 | 154 | 1.0 | 1.0 | 0.00 | 0.00 | 0.00 | 73 | 972.4 |
| 20260506072504 | 63 | 180 | 1.0 | 1.0 | 0.00 | 0.00 | 0.00 | 73 | 972.4 |
| 20260506072004 | 63 | 171 | 0.0 | 1.0 | 0.00 | 0.00 | 0.00 | 73 | 972.4 |
| 20260506071506 | 64 | 190 | 0.0 | 1.0 | 0.00 | 0.00 | 0.00 | 72 | 972.4 |
| 20260506071004 | 64 | 179 | 1.0 | 3.0 | 0.00 | 0.00 | 0.00 | 71 | 972.4 |
| 20260506070504 | 65 | 233 | 2.0 | 3.0 | 0.00 | 0.00 | 0.00 | 70 | 972.4 |
| 20260506062504 | 65 | 292 | 2.0 | 3.0 | 0.00 | 0.00 | 0.00 | 69 | 973.0 |
| 20260506062004 | 65 | 171 | 2.0 | 5.0 | 0.00 | 0.00 | 0.00 | 69 | 973.0 |
| 20260506061504 | 65 | 98 | 3.0 | 6.0 | 0.00 | 0.00 | 0.00 | 69 | 973.0 |
| 20260506060504 | 65 | 179 | 2.0 | 3.0 | 0.00 | 0.00 | 0.00 | 69 | 973.1 |
| 20260506051004 | 65 | 167 | 1.0 | 1.0 | 0.00 | 0.00 | 0.00 | 68 | 973.3 |
| 20260506050504 | 65 | 117 | 1.0 | 3.0 | 0.00 | 0.00 | 0.00 | 66 | 973.3 |
| 20260506045005 | 66 | 199 | 2.0 | 2.0 | 0.00 | 0.00 | 0.00 | 65 | 973.2 |
| 20260506044504 | 66 | 212 | 2.0 | 3.0 | 0.00 | 0.00 | 0.00 | 64 | 973.2 |
| 20260506044004 | 66 | 155 | 2.0 | 3.0 | 0.00 | 0.00 | 0.00 | 64 | 973.2 |
| 20260506043504 | 67 | 169 | 1.0 | 2.0 | 0.00 | 0.00 | 0.00 | 63 | 973.2 |
| 20260506042504 | 67 | 217 | 4.0 | 5.0 | 0.00 | 0.00 | 0.00 | 60 | 973.3 |
| 20260506042004 | 68 | 169 | 2.0 | 5.0 | 0.00 | 0.00 | 0.00 | 60 | 973.3 |
| 20260506041504 | 68 | 202 | 3.0 | 3.0 | 0.00 | 0.00 | 0.00 | 60 | 973.3 |
| 20260506040004 | 68 | 194 | 3.0 | 3.0 | 0.00 | 0.00 | 0.00 | 59 | 973.3 |
| 20260506035504 | 68 | 202 | 2.0 | 3.0 | 0.00 | 0.00 | 0.00 | 59 | 973.3 |
| 20260506034504 | 68 | 201 | 2.0 | 5.0 | 0.00 | 0.00 | 0.00 | 58 | 973.1 |
| 20260506034004 | 69 | 175 | 2.0 | 5.0 | 0.00 | 0.00 | 0.00 | 58 | 973.1 |
| 20260506033505 | 69 | 159 | 3.0 | 5.0 | 0.00 | 0.00 | 0.00 | 58 | 973.1 |
| 20260506033005 | 69 | 158 | 2.0 | 3.0 | 0.00 | 0.00 | 0.00 | 58 | 973.1 |
| 20260506032504 | 69 | 214 | 2.0 | 5.0 | 0.00 | 0.00 | 0.00 | 57 | 973.1 |
| 20260506032004 | 69 | 225 | 1.0 | 2.0 | 0.00 | 0.00 | 0.00 | 57 | 973.1 |
| 20260506031504 | 69 | 168 | 2.0 | 5.0 | 0.00 | 0.00 | 0.00 | 57 | 973.1 |
| 20260506031004 | 69 | 154 | 3.0 | 5.0 | 0.00 | 0.00 | 0.00 | 56 | 973.1 |
| 20260506030504 | 69 | 170 | 3.0 | 5.0 | 0.00 | 0.00 | 0.00 | 56 | 973.1 |
| 20260506030004 | 69 | 193 | 3.0 | 5.0 | 0.00 | 0.00 | 0.00 | 56 | 973.2 |
| 20260506025504 | 69 | 225 | 2.0 | 5.0 | 0.00 | 0.00 | 0.00 | 56 | 973.2 |
| 20260506025004 | 69 | 204 | 4.0 | 6.0 | 0.00 | 0.00 | 0.00 | 56 | 973.2 |
| 20260506024504 | 69 | 158 | 2.0 | 3.0 | 0.00 | 0.00 | 0.00 | 56 | 973.2 |
| 20260506024004 | 69 | 204 | 2.0 | 3.0 | 0.00 | 0.00 | 0.00 | 55 | 973.2 |
| 20260506023504 | 70 | 205 | 3.0 | 3.0 | 0.00 | 0.00 | 0.00 | 54 | 973.1 |
| 20260506023004 | 70 | 180 | 2.0 | 5.0 | 0.00 | 0.00 | 0.00 | 54 | 973.1 |
| 20260506022504 | 70 | 114 | 2.0 | 3.0 | 0.00 | 0.00 | 0.00 | 53 | 973.2 |
| 20260506021504 | 71 | 136 | 1.0 | 2.0 | 0.00 | 0.00 | 0.00 | 53 | 973.2 |
| 20260506021003 | 71 | 202 | 2.0 | 5.0 | 0.00 | 0.00 | 0.00 | 52 | 973.1 |
| 20260506020504 | 71 | 212 | 3.0 | 6.0 | 0.00 | 0.00 | 0.00 | 51 | 973.1 |
| 20260506020004 | 72 | 210 | 2.0 | 6.0 | 0.00 | 0.00 | 0.00 | 51 | 972.9 |
| 20260506015504 | 72 | 202 | 3.0 | 5.0 | 0.00 | 0.00 | 0.00 | 51 | 972.9 |
| 20260506014504 | 72 | 189 | 3.0 | 5.0 | 0.00 | 0.00 | 0.00 | 51 | 972.6 |
| 20260506014004 | 72 | 247 | 3.0 | 5.0 | 0.00 | 0.00 | 0.00 | 51 | 972.6 |
| 20260506013504 | 72 | 205 | 3.0 | 5.0 | 0.00 | 0.00 | 0.00 | 51 | 972.7 |
| 20260506013004 | 72 | 162 | 3.0 | 5.0 | 0.00 | 0.00 | 0.00 | 51 | 972.7 |
| 20260506012504 | 72 | 270 | 3.0 | 5.0 | 0.00 | 0.00 | 0.00 | 52 | 972.5 |
| 20260506011504 | 72 | 208 | 3.0 | 5.0 | 0.00 | 0.00 | 0.00 | 51 | 972.5 |
| 20260506011004 | 72 | 214 | 4.0 | 6.0 | 0.00 | 0.00 | 0.00 | 51 | 972.4 |
| 20260506010504 | 72 | 170 | 3.0 | 5.0 | 0.00 | 0.00 | 0.00 | 50 | 972.4 |
| 20260506010004 | 73 | 213 | 3.0 | 5.0 | 0.00 | 0.00 | 0.00 | 50 | 972.3 |
| 20260506005504 | 73 | 152 | 4.0 | 6.0 | 0.00 | 0.00 | 0.00 | 50 | 972.3 |
| 20260506005004 | 73 | 214 | 2.0 | 3.0 | 0.00 | 0.00 | 0.00 | 49 | 972.3 |
| 20260506004504 | 73 | 237 | 5.0 | 6.0 | 0.00 | 0.00 | 0.00 | 49 | 972.3 |
| 20260506004004 | 73 | 234 | 3.0 | 6.0 | 0.00 | 0.00 | 0.00 | 49 | 972.3 |
| 20260506003504 | 74 | 203 | 5.0 | 7.0 | 0.00 | 0.00 | 0.00 | 49 | 972.1 |
| 20260506003004 | 74 | 244 | 4.0 | 6.0 | 0.00 | 0.00 | 0.00 | 49 | 972.1 |
| 20260506002504 | 74 | 235 | 4.0 | 6.0 | 0.00 | 0.00 | 0.00 | 49 | 972.0 |
| 20260506002004 | 74 | 195 | 2.0 | 6.0 | 0.00 | 0.00 | 0.00 | 49 | 972.0 |
| 20260506001503 | 74 | 233 | 3.0 | 6.0 | 0.00 | 0.00 | 0.00 | 49 | 972.0 |
| 20260506001004 | 74 | 220 | 5.0 | 9.0 | 0.00 | 0.00 | 0.00 | 49 | 972.1 |
| 20260506000504 | 74 | 193 | 3.0 | 5.0 | 0.00 | 0.00 | 0.00 | 49 | 972.1 |
| 20260506000004 | 74 | 228 | 3.0 | 5.0 | 0.00 | 0.00 | 0.00 | 49 | 972.0 |
| 20260505235504 | 74 | 164 | 3.0 | 5.0 | 0.00 | 0.00 | 0.00 | 49 | 972.0 |
| 20260505235004 | 74 | 133 | 2.0 | 5.0 | 0.00 | 0.00 | 0.00 | 49 | 971.9 |
| 20260505234504 | 74 | 174 | 3.0 | 5.0 | 0.00 | 0.00 | 0.00 | 49 | 971.9 |
| 20260505234004 | 74 | 191 | 3.0 | 6.0 | 0.00 | 0.00 | 0.00 | 49 | 971.9 |
| 20260505233504 | 74 | 197 | 2.0 | 3.0 | 0.00 | 0.00 | 0.00 | 49 | 971.8 |
| 20260505233004 | 75 | 229 | 2.0 | 3.0 | 0.00 | 0.00 | 0.00 | 48 | 971.8 |
| 20260505232504 | 75 | 225 | 3.0 | 5.0 | 0.00 | 0.00 | 0.00 | 48 | 971.8 |
| 20260505232004 | 75 | 202 | 2.0 | 3.0 | 0.00 | 0.00 | 0.00 | 48 | 971.8 |
| 20260505231504 | 75 | 161 | 2.0 | 3.0 | 0.00 | 0.00 | 0.00 | 48 | 971.8 |
| 20260505230504 | 75 | 212 | 2.0 | 6.0 | 0.00 | 0.00 | 0.00 | 47 | 971.8 |
| 20260505225504 | 76 | 202 | 3.0 | 5.0 | 0.00 | 0.00 | 0.00 | 46 | 971.7 |
| 20260505225004 | 76 | 171 | 2.0 | 6.0 | 0.00 | 0.00 | 0.00 | 45 | 971.6 |
| 20260505224505 | 76 | 158 | 4.0 | 6.0 | 0.00 | 0.00 | 0.00 | 45 | 971.6 |
| 20260505224004 | 76 | 184 | 2.0 | 5.0 | 0.00 | 0.00 | 0.00 | 45 | 971.6 |
| 20260505223504 | 77 | 180 | 3.0 | 6.0 | 0.00 | 0.00 | 0.00 | 45 | 971.5 |
| 20260505223004 | 77 | 190 | 3.0 | 6.0 | 0.00 | 0.00 | 0.00 | 44 | 971.5 |
| 20260505222504 | 77 | 219 | 4.0 | 6.0 | 0.00 | 0.00 | 0.00 | 44 | 971.5 |
| 20260505222004 | 77 | 225 | 2.0 | 5.0 | 0.00 | 0.00 | 0.00 | 44 | 971.5 |
| 20260505221504 | 77 | 191 | 3.0 | 5.0 | 0.00 | 0.00 | 0.00 | 44 | 971.5 |
| 20260505221004 | 77 | 191 | 3.0 | 6.0 | 0.00 | 0.00 | 0.00 | 44 | 971.3 |
| 20260505220004 | 77 | 199 | 3.0 | 6.0 | 0.00 | 0.00 | 0.00 | 44 | 971.3 |
| 20260505215504 | 78 | 264 | 2.0 | 3.0 | 0.00 | 0.00 | 0.00 | 44 | 971.3 |
| 20260505215004 | 78 | 169 | 3.0 | 6.0 | 0.00 | 0.00 | 0.00 | 44 | 971.2 |
| 20260505214004 | 79 | 212 | 3.0 | 7.0 | 0.00 | 0.00 | 0.00 | 42 | 971.2 |
| 20260505213504 | 80 | 207 | 4.0 | 10.0 | 0.00 | 0.00 | 0.00 | 42 | 971.0 |
| 20260505212504 | 80 | 213 | 2.0 | 7.0 | 0.00 | 0.00 | 0.00 | 42 | 971.0 |
| 20260505212004 | 81 | 215 | 5.0 | 7.0 | 0.00 | 0.00 | 0.00 | 41 | 971.0 |
| 20260505211504 | 81 | 200 | 3.0 | 7.0 | 0.00 | 0.00 | 0.00 | 41 | 971.0 |
| 20260505211004 | 81 | 192 | 4.0 | 7.0 | 0.00 | 0.00 | 0.00 | 41 | 970.7 |
| 20260505210504 | 81 | 194 | 5.0 | 7.0 | 0.00 | 0.00 | 0.00 | 41 | 970.7 |
| 20260505210004 | 83 | 164 | 3.0 | 6.0 | 0.00 | 0.00 | 0.00 | 38 | 970.8 |
| 20260505205504 | 84 | 268 | 5.0 | 9.0 | 0.00 | 0.00 | 0.00 | 35 | 970.8 |
| 20260505205004 | 84 | 238 | 4.0 | 8.0 | 0.00 | 0.00 | 0.00 | 34 | 970.8 |
| 20260505204504 | 85 | 260 | 5.0 | 9.0 | 0.00 | 0.00 | 0.00 | 34 | 970.8 |
| 20260505204005 | 85 | 261 | 6.0 | 9.0 | 0.00 | 0.00 | 0.00 | 33 | 970.8 |
| 20260505203504 | 84 | 236 | 4.0 | 8.0 | 0.00 | 0.00 | 0.00 | 35 | 970.9 |
| 20260505203004 | 83 | 195 | 4.0 | 8.0 | 0.00 | 0.00 | 0.00 | 35 | 970.9 |
| 20260505202504 | 82 | 180 | 5.0 | 7.0 | 0.00 | 0.00 | 0.00 | 35 | 971.0 |
| 20260505202004 | 82 | 202 | 6.0 | 9.0 | 0.00 | 0.00 | 0.00 | 35 | 971.0 |
| 20260505201504 | 82 | 254 | 7.0 | 8.0 | 0.00 | 0.00 | 0.00 | 35 | 971.0 |
| 20260505201004 | 84 | 231 | 6.0 | 10.0 | 0.00 | 0.00 | 0.00 | 34 | 971.1 |
| 20260505200504 | 83 | 219 | 5.0 | 8.0 | 0.00 | 0.00 | 0.00 | 36 | 971.1 |
| 20260505200005 | 83 | 194 | 5.0 | 7.0 | 0.00 | 0.00 | 0.00 | 35 | 971.1 |
| 20260505195004 | 82 | 198 | 5.0 | 7.0 | 0.00 | 0.00 | 0.00 | 35 | 971.1 |
| 20260505194504 | 83 | 251 | 6.0 | 9.0 | 0.00 | 0.00 | 0.00 | 35 | 971.3 |
| 20260505194004 | 84 | 212 | 5.0 | 8.0 | 0.00 | 0.00 | 0.00 | 35 | 971.3 |
| 20260505193504 | 83 | 234 | 5.0 | 8.0 | 0.00 | 0.00 | 0.00 | 34 | 971.4 |
| 20260505193004 | 82 | 105 | 5.0 | 8.0 | 0.00 | 0.00 | 0.00 | 35 | 971.4 |
| 20260505192004 | 82 | 258 | 6.0 | 10.0 | 0.00 | 0.00 | 0.00 | 34 | 971.5 |
| 20260505191504 | 82 | 181 | 5.0 | 6.0 | 0.00 | 0.00 | 0.00 | 35 | 971.5 |
| 20260505191004 | 81 | 124 | 5.0 | 9.0 | 0.00 | 0.00 | 0.00 | 37 | 971.7 |
| 20260505190504 | 82 | 195 | 4.0 | 8.0 | 0.00 | 0.00 | 0.00 | 37 | 971.7 |
| 20260505190004 | 84 | 244 | 5.0 | 7.0 | 0.00 | 0.00 | 0.00 | 36 | 971.9 |
| 20260505185504 | 83 | 148 | 4.0 | 7.0 | 0.00 | 0.00 | 0.00 | 37 | 971.9 |
| 20260505185004 | 83 | 202 | 6.0 | 7.0 | 0.00 | 0.00 | 0.00 | 37 | 971.8 |
| 20260505184504 | 84 | 147 | 3.0 | 6.0 | 0.00 | 0.00 | 0.00 | 38 | 971.8 |
| 20260505184005 | 84 | 259 | 5.0 | 7.0 | 0.00 | 0.00 | 0.00 | 37 | 971.8 |
| 20260505183504 | 83 | 208 | 5.0 | 6.0 | 0.00 | 0.00 | 0.00 | 39 | 971.9 |
| 20260505183004 | 83 | 158 | 5.0 | 6.0 | 0.00 | 0.00 | 0.00 | 39 | 971.9 |